Time,TemperatureF,DewpointF,PressureIn,WindDirection,WindDirectionDegrees,WindSpeedMPH,WindSpeedGustMPH,Humidity,HourlyPrecipIn,Conditions,Clouds,dailyrainin,SoftwareType,DateUTC
2013-03-12 00:02:00,68.0,66.0,30.03,SW,231,1.0,2.0,94,0.00,,,0.28,,2013-03-12 10:02:00,
2013-03-12 00:11:00,68.0,66.0,30.03,SW,231,1.0,2.0,94,0.00,,,0.28,,2013-03-12 10:11:00,
2013-03-12 00:22:00,68.0,66.0,30.04,West,264,2.0,3.0,94,0.00,,,0.28,,2013-03-12 10:22:00,
2013-03-12 00:32:00,68.0,66.0,30.04,West,268,1.0,3.0,94,0.00,,,0.28,,2013-03-12 10:32:00,
2013-03-12 00:42:00,68.0,66.0,30.04,West,268,1.0,3.0,94,0.00,,,0.28,,2013-03-12 10:42:00,
2013-03-12 00:52:00,68.0,66.0,30.03,West,270,0.0,2.0,94,0.00,,,0.28,,2013-03-12 10:52:00,
2013-03-12 01:01:00,68.0,66.0,30.03,SW,215,2.0,4.0,94,0.00,,,0.28,,2013-03-12 11:01:00,
2013-03-12 01:12:00,68.0,66.0,30.03,SW,215,2.0,4.0,94,0.00,,,0.28,,2013-03-12 11:12:00,
2013-03-12 01:22:00,68.0,66.0,30.01,WSW,253,1.0,3.0,94,0.00,,,0.28,,2013-03-12 11:22:00,
2013-03-12 01:32:00,68.0,66.0,30.00,WSW,242,3.0,4.0,94,0.00,,,0.28,,2013-03-12 11:32:00,
2013-03-12 01:42:00,68.0,66.0,30.00,WSW,242,3.0,4.0,94,0.00,,,0.28,,2013-03-12 11:42:00,
2013-03-12 01:52:00,68.0,67.0,30.01,SW,232,1.0,3.0,95,0.00,,,0.28,,2013-03-12 11:52:00,
2013-03-12 02:02:00,68.0,67.0,30.00,SW,232,1.0,3.0,95,0.00,,,0.28,,2013-03-12 12:02:00,
2013-03-12 02:12:00,68.0,67.0,30.00,SW,232,1.0,3.0,95,0.00,,,0.28,,2013-03-12 12:12:00,
2013-03-12 02:22:00,68.0,67.0,29.98,WSW,240,2.0,3.0,95,0.00,,,0.28,,2013-03-12 12:22:00,
2013-03-12 02:32:00,68.0,67.0,30.01,West,281,2.0,4.0,95,0.00,,,0.28,,2013-03-12 12:32:00,
2013-03-12 02:42:00,68.0,67.0,30.01,West,281,2.0,4.0,95,0.00,,,0.28,,2013-03-12 12:42:00,
2013-03-12 02:52:00,68.0,67.0,30.01,WSW,256,2.0,5.0,95,0.00,,,0.28,,2013-03-12 12:52:00,
2013-03-12 03:01:00,67.0,66.0,29.99,WSW,253,2.0,3.0,95,0.00,,,0.28,,2013-03-12 13:01:00,
2013-03-12 03:11:00,67.0,66.0,29.99,WSW,253,2.0,3.0,95,0.00,,,0.28,,2013-03-12 13:11:00,
2013-03-12 03:21:00,67.0,66.0,29.98,WSW,251,1.0,2.0,95,0.00,,,0.28,,2013-03-12 13:21:00,
2013-03-12 03:32:00,67.0,66.0,29.97,WSW,246,1.0,3.0,95,0.00,,,0.28,,2013-03-12 13:32:00,
2013-03-12 03:42:00,67.0,66.0,29.97,WSW,246,1.0,3.0,95,0.00,,,0.28,,2013-03-12 13:42:00,
2013-03-12 03:52:00,67.0,66.0,29.97,WSW,246,1.0,3.0,95,0.00,,,0.28,,2013-03-12 13:52:00,
2013-03-12 04:02:00,67.0,66.0,29.97,West,265,1.0,3.0,95,0.00,,,0.28,,2013-03-12 14:02:00,
2013-03-12 04:21:00,67.0,66.0,29.99,West,268,2.0,4.0,95,0.00,,,0.28,,2013-03-12 14:21:00,
2013-03-12 04:32:00,67.0,66.0,30.00,West,259,2.0,5.0,95,0.00,,,0.28,,2013-03-12 14:32:00,
2013-03-12 04:42:00,67.0,66.0,30.00,West,259,2.0,5.0,95,0.00,,,0.28,,2013-03-12 14:42:00,
2013-03-12 04:53:00,67.0,66.0,29.98,West,268,1.0,2.0,95,0.00,,,0.28,,2013-03-12 14:53:00,
2013-03-12 05:01:00,67.0,66.0,29.98,WSW,243,2.0,3.0,95,0.00,,,0.28,,2013-03-12 15:01:00,
2013-03-12 05:12:00,67.0,66.0,29.98,WSW,243,2.0,3.0,95,0.00,,,0.28,,2013-03-12 15:12:00,
2013-03-12 05:22:00,67.0,66.0,29.98,SW,227,2.0,4.0,95,0.00,,,0.28,,2013-03-12 15:22:00,
2013-03-12 05:31:00,67.0,66.0,29.98,WSW,247,2.0,4.0,95,0.00,,,0.28,,2013-03-12 15:31:00,
2013-03-12 05:41:00,67.0,66.0,29.98,WSW,247,2.0,4.0,95,0.00,,,0.28,,2013-03-12 15:41:00,
2013-03-12 05:53:00,67.0,66.0,30.00,WSW,247,1.0,3.0,95,0.00,,,0.28,,2013-03-12 15:53:00,
2013-03-12 06:02:00,67.0,66.0,29.99,SW,232,2.0,3.0,95,0.00,,,0.28,,2013-03-12 16:02:00,
2013-03-12 06:12:00,67.0,66.0,29.99,SW,232,2.0,3.0,95,0.00,,,0.28,,2013-03-12 16:12:00,
2013-03-12 06:22:00,66.0,65.0,30.00,SW,234,2.0,3.0,95,0.00,,,0.28,,2013-03-12 16:22:00,
2013-03-12 06:32:00,66.0,65.0,30.00,SW,223,2.0,4.0,95,0.00,,,0.28,,2013-03-12 16:32:00,
2013-03-12 06:42:00,66.0,65.0,30.00,SW,223,2.0,4.0,95,0.00,,,0.28,,2013-03-12 16:42:00,
2013-03-12 06:52:00,66.0,65.0,30.00,WSW,246,2.0,3.0,95,0.00,,,0.28,,2013-03-12 16:52:00,
2013-03-12 07:02:00,66.0,65.0,30.00,WSW,237,3.0,4.0,95,0.00,,,0.28,,2013-03-12 17:02:00,
2013-03-12 07:12:00,66.0,65.0,30.00,WSW,237,3.0,4.0,95,0.00,,,0.28,,2013-03-12 17:12:00,
2013-03-12 07:22:00,66.0,65.0,30.01,SW,226,2.0,4.0,95,0.00,,,0.28,,2013-03-12 17:22:00,
2013-03-12 07:33:00,66.0,65.0,30.02,WSW,238,2.0,4.0,95,0.00,,,0.28,,2013-03-12 17:33:00,
2013-03-12 07:42:00,66.0,65.0,30.02,WSW,238,2.0,4.0,95,0.00,,,0.28,,2013-03-12 17:42:00,
2013-03-12 07:53:00,67.0,66.0,30.01,WSW,238,2.0,2.0,95,0.00,,,0.28,,2013-03-12 17:53:00,
2013-03-12 08:02:00,67.0,66.0,30.03,SW,229,1.0,3.0,95,0.00,,,0.28,,2013-03-12 18:02:00,
2013-03-12 08:12:00,68.0,67.0,30.03,WSW,251,2.0,3.0,95,0.00,,,0.28,,2013-03-12 18:12:00,
2013-03-12 08:22:00,68.0,67.0,30.03,WSW,251,2.0,3.0,95,0.00,,,0.28,,2013-03-12 18:22:00,
2013-03-12 08:32:00,68.0,66.0,30.04,SW,234,1.0,4.0,94,0.00,,,0.28,,2013-03-12 18:32:00,
2013-03-12 08:42:00,68.0,66.0,30.04,SW,234,1.0,4.0,94,0.00,,,0.28,,2013-03-12 18:42:00,
2013-03-12 08:53:00,69.0,68.0,30.04,SW,222,3.0,4.0,95,0.00,,,0.28,,2013-03-12 18:53:00,
2013-03-12 09:02:00,69.0,67.0,30.04,SW,222,0.0,2.0,94,0.00,,,0.28,,2013-03-12 19:02:00,
2013-03-12 09:12:00,69.0,67.0,30.04,SW,222,0.0,2.0,94,0.00,,,0.28,,2013-03-12 19:12:00,
2013-03-12 09:22:00,70.0,68.0,30.05,WNW,285,1.0,3.0,94,0.00,,,0.28,,2013-03-12 19:22:00,
2013-03-12 09:32:00,71.0,69.0,30.06,WNW,301,1.0,4.0,93,0.00,,,0.28,,2013-03-12 19:32:00,
2013-03-12 09:43:00,71.0,69.0,30.06,WNW,301,1.0,4.0,93,0.00,,,0.28,,2013-03-12 19:43:00,
2013-03-12 09:53:00,72.0,70.0,30.06,WNW,303,3.0,5.0,92,0.00,,,0.28,,2013-03-12 19:53:00,
2013-03-12 10:01:00,72.0,70.0,30.06,NW,304,0.0,4.0,92,0.00,,,0.28,,2013-03-12 20:01:00,
2013-03-12 10:11:00,72.0,70.0,30.06,NW,304,0.0,4.0,92,0.00,,,0.28,,2013-03-12 20:11:00,
2013-03-12 10:22:00,72.0,69.0,30.05,NNE,27,1.0,5.0,90,0.00,,,0.28,,2013-03-12 20:22:00,
2013-03-12 10:32:00,73.0,70.0,30.05,ENE,71,1.0,3.0,90,0.00,,,0.28,,2013-03-12 20:32:00,
2013-03-12 10:42:00,73.0,70.0,30.05,ENE,71,1.0,3.0,90,0.00,,,0.28,,2013-03-12 20:42:00,
2013-03-12 10:53:00,73.0,70.0,30.06,NE,35,2.0,4.0,90,0.00,,,0.28,,2013-03-12 20:53:00,
2013-03-12 11:02:00,73.0,70.0,30.06,NE,46,3.0,5.0,89,0.00,,,0.28,,2013-03-12 21:02:00,
2013-03-12 11:12:00,73.0,70.0,30.06,NE,46,3.0,5.0,89,0.00,,,0.28,,2013-03-12 21:12:00,
2013-03-12 11:22:00,73.0,69.0,30.05,ENE,60,2.0,4.0,88,0.00,,,0.28,,2013-03-12 21:22:00,
2013-03-12 11:32:00,73.0,69.0,30.04,NE,52,3.0,5.0,88,0.00,,,0.28,,2013-03-12 21:32:00,
2013-03-12 11:42:00,73.0,69.0,30.04,NE,52,3.0,5.0,88,0.00,,,0.28,,2013-03-12 21:42:00,
2013-03-12 11:52:00,73.0,69.0,30.03,NE,54,2.0,4.0,88,0.00,,,0.28,,2013-03-12 21:52:00,
2013-03-12 12:01:00,74.0,70.0,30.04,NE,45,1.0,2.0,87,0.00,,,0.28,,2013-03-12 22:01:00,
2013-03-12 12:12:00,74.0,70.0,30.04,NE,45,1.0,2.0,87,0.00,,,0.28,,2013-03-12 22:12:00,
2013-03-12 12:22:00,74.0,69.0,30.04,WNW,303,2.0,5.0,85,0.00,,,0.28,,2013-03-12 22:22:00,
2013-03-12 12:32:00,74.0,69.0,30.02,NNE,29,2.0,5.0,85,0.00,,,0.28,,2013-03-12 22:32:00,
2013-03-12 12:42:00,74.0,69.0,30.02,NNE,29,2.0,5.0,85,0.00,,,0.28,,2013-03-12 22:42:00,
2013-03-12 12:53:00,74.0,69.0,30.01,North,357,5.0,7.0,85,0.00,,,0.28,,2013-03-12 22:53:00,
2013-03-12 13:02:00,74.0,70.0,30.01,NW,326,4.0,7.0,86,0.00,,,0.28,,2013-03-12 23:02:00,
2013-03-12 13:12:00,74.0,70.0,30.01,NW,326,4.0,7.0,86,0.00,,,0.28,,2013-03-12 23:12:00,
2013-03-12 13:22:00,74.0,70.0,30.01,NNE,15,3.0,6.0,86,0.00,,,0.28,,2013-03-12 23:22:00,
2013-03-12 13:33:00,74.0,70.0,30.00,North,355,2.0,5.0,86,0.00,,,0.28,,2013-03-12 23:33:00,
2013-03-12 13:42:00,74.0,70.0,30.00,North,355,2.0,5.0,86,0.00,,,0.28,,2013-03-12 23:42:00,
2013-03-12 13:52:00,74.0,69.0,30.00,North,356,3.0,5.0,85,0.00,,,0.28,,2013-03-12 23:52:00,
2013-03-12 14:02:00,74.0,69.0,30.01,North,6,2.0,6.0,85,0.00,,,0.28,,2013-03-13 00:02:00,
2013-03-12 14:12:00,74.0,69.0,30.01,North,6,2.0,6.0,85,0.00,,,0.28,,2013-03-13 00:12:00,
2013-03-12 14:22:00,74.0,69.0,29.99,NNE,18,4.0,7.0,84,0.00,,,0.28,,2013-03-13 00:22:00,
2013-03-12 14:32:00,74.0,69.0,29.98,NE,37,5.0,7.0,84,0.00,,,0.28,,2013-03-13 00:32:00,
2013-03-12 14:41:00,74.0,69.0,29.98,NE,37,5.0,7.0,84,0.00,,,0.28,,2013-03-13 00:41:00,
2013-03-12 14:53:00,74.0,69.0,29.99,NNE,31,3.0,5.0,84,0.00,,,0.28,,2013-03-13 00:53:00,
2013-03-12 15:02:00,74.0,69.0,29.98,NE,42,2.0,5.0,85,0.00,,,0.28,,2013-03-13 01:02:00,
2013-03-12 15:12:00,74.0,69.0,29.98,NE,42,2.0,5.0,85,0.00,,,0.28,,2013-03-13 01:12:00,
2013-03-12 15:21:00,74.0,69.0,29.97,NNE,22,3.0,6.0,85,0.01,,,0.11,,2013-03-13 01:21:00,
2013-03-12 15:31:00,73.0,69.0,29.98,North,9,1.0,5.0,87,0.01,,,0.11,,2013-03-13 01:31:00,
2013-03-12 15:42:00,73.0,69.0,29.98,North,9,1.0,5.0,87,0.01,,,0.11,,2013-03-13 01:42:00,
2013-03-12 15:52:00,73.0,69.0,29.98,North,357,0.0,4.0,87,0.01,,,0.11,,2013-03-13 01:52:00,
2013-03-12 16:02:00,73.0,69.0,29.98,North,1,3.0,6.0,88,0.01,,,0.11,,2013-03-13 02:02:00,
2013-03-12 16:11:00,73.0,69.0,29.98,North,1,3.0,6.0,88,0.01,,,0.11,,2013-03-13 02:11:00,
2013-03-12 16:21:00,73.0,69.0,29.98,NNE,12,3.0,7.0,88,0.00,,,0.02,,2013-03-13 02:21:00,
2013-03-12 16:31:00,73.0,69.0,29.99,North,355,4.0,8.0,88,0.00,,,0.02,,2013-03-13 02:31:00,
2013-03-12 16:42:00,73.0,69.0,29.99,North,355,4.0,8.0,88,0.00,,,0.02,,2013-03-13 02:42:00,
2013-03-12 16:52:00,72.0,68.0,29.98,NNE,27,3.0,6.0,87,0.00,,,0.02,,2013-03-13 02:52:00,
2013-03-12 17:01:00,72.0,68.0,29.99,North,354,3.0,4.0,87,0.02,,,0.04,,2013-03-13 03:01:00,
2013-03-12 17:12:00,72.0,68.0,29.99,North,354,3.0,4.0,87,0.02,,,0.04,,2013-03-13 03:12:00,
2013-03-12 17:22:00,72.0,68.0,30.00,North,352,3.0,5.0,88,0.02,,,0.04,,2013-03-13 03:22:00,
2013-03-12 17:31:00,72.0,68.0,30.00,NW,314,1.0,5.0,88,0.02,,,0.04,,2013-03-13 03:31:00,
2013-03-12 17:42:00,72.0,68.0,30.00,NW,314,1.0,5.0,88,0.02,,,0.04,,2013-03-13 03:42:00,
2013-03-12 17:52:00,71.0,67.0,30.00,North,6,1.0,4.0,88,0.03,,,0.05,,2013-03-13 03:52:00,
2013-03-12 18:02:00,71.0,67.0,30.01,NW,322,2.0,5.0,88,0.02,,,0.06,,2013-03-13 04:02:00,
2013-03-12 18:12:00,71.0,67.0,30.01,NW,322,2.0,5.0,88,0.02,,,0.06,,2013-03-13 04:12:00,
2013-03-12 18:22:00,71.0,68.0,30.01,North,358,2.0,6.0,89,0.02,,,0.05,,2013-03-13 04:22:00,
2013-03-12 18:31:00,71.0,68.0,30.01,NW,318,2.0,4.0,89,0.02,,,0.05,,2013-03-13 04:31:00,
2013-03-12 18:42:00,71.0,68.0,30.01,NW,318,2.0,4.0,89,0.02,,,0.05,,2013-03-13 04:42:00,
2013-03-12 18:53:00,71.0,68.0,30.02,NW,305,1.0,3.0,89,0.01,,,0.05,,2013-03-13 04:53:00,
2013-03-12 19:01:00,71.0,68.0,30.02,NW,314,2.0,3.0,89,0.01,,,0.06,,2013-03-13 05:01:00,
2013-03-12 19:12:00,71.0,68.0,30.02,NW,314,2.0,3.0,89,0.01,,,0.06,,2013-03-13 05:12:00,
2013-03-12 19:22:00,71.0,68.0,30.02,WNW,293,1.0,4.0,90,0.03,,,0.08,,2013-03-13 05:22:00,
2013-03-12 19:31:00,70.0,67.0,30.03,West,274,1.0,2.0,91,0.04,,,0.09,,2013-03-13 05:31:00,
2013-03-12 19:42:00,70.0,67.0,30.03,West,274,1.0,2.0,91,0.04,,,0.09,,2013-03-13 05:42:00,
2013-03-12 19:52:00,70.0,68.0,30.04,WSW,257,1.0,4.0,92,0.05,,,0.10,,2013-03-13 05:52:00,
2013-03-12 20:01:00,70.0,68.0,30.04,SW,225,2.0,3.0,92,0.04,,,0.10,,2013-03-13 06:01:00,
2013-03-12 20:12:00,70.0,68.0,30.04,SW,225,2.0,3.0,92,0.04,,,0.10,,2013-03-13 06:12:00,
2013-03-12 20:22:00,69.0,67.0,30.05,SW,231,3.0,4.0,92,0.03,,,0.11,,2013-03-13 06:22:00,
2013-03-12 20:32:00,69.0,67.0,30.05,SW,228,0.0,2.0,93,0.02,,,0.11,,2013-03-13 06:32:00,
2013-03-12 20:42:00,69.0,67.0,30.05,SW,228,0.0,2.0,93,0.02,,,0.11,,2013-03-13 06:42:00,
2013-03-12 20:52:00,68.0,66.0,30.06,WSW,241,2.0,3.0,93,0.01,,,0.11,,2013-03-13 06:52:00,
2013-03-12 21:02:00,68.0,66.0,30.07,WSW,241,2.0,3.0,94,0.01,,,0.11,,2013-03-13 07:02:00,
2013-03-12 21:12:00,68.0,66.0,30.07,WSW,241,2.0,3.0,94,0.01,,,0.11,,2013-03-13 07:12:00,
2013-03-12 21:22:00,68.0,66.0,30.07,WSW,247,0.0,3.0,94,0.00,,,0.11,,2013-03-13 07:22:00,
2013-03-12 21:32:00,68.0,66.0,30.07,WSW,247,1.0,2.0,94,0.00,,,0.11,,2013-03-13 07:32:00,
2013-03-12 21:42:00,68.0,66.0,30.07,WSW,247,1.0,2.0,94,0.00,,,0.11,,2013-03-13 07:42:00,
2013-03-12 21:52:00,67.0,65.0,30.08,WSW,257,2.0,4.0,94,0.00,,,0.11,,2013-03-13 07:52:00,
2013-03-12 22:02:00,67.0,65.0,30.08,WSW,258,2.0,4.0,94,0.00,,,0.11,,2013-03-13 08:02:00,
2013-03-12 22:12:00,67.0,65.0,30.08,WSW,258,2.0,4.0,94,0.00,,,0.11,,2013-03-13 08:12:00,
2013-03-12 22:22:00,68.0,67.0,30.09,West,268,2.0,4.0,95,0.00,,,0.11,,2013-03-13 08:22:00,
2013-03-12 22:31:00,68.0,67.0,30.09,WNW,290,2.0,5.0,95,0.00,,,0.11,,2013-03-13 08:31:00,
2013-03-12 22:42:00,68.0,67.0,30.09,WNW,290,2.0,5.0,95,0.00,,,0.11,,2013-03-13 08:42:00,
2013-03-12 23:01:00,68.0,66.0,30.09,West,281,2.0,5.0,94,0.00,,,0.11,,2013-03-13 09:01:00,
2013-03-12 23:12:00,68.0,66.0,30.09,West,281,2.0,5.0,94,0.00,,,0.11,,2013-03-13 09:12:00,
2013-03-12 23:22:00,68.0,66.0,30.09,WNW,289,2.0,5.0,94,0.00,,,0.11,,2013-03-13 09:22:00,
2013-03-12 23:31:00,68.0,67.0,30.08,West,275,2.0,4.0,95,0.00,,,0.11,,2013-03-13 09:31:00,
2013-03-12 23:42:00,68.0,67.0,30.08,West,275,2.0,4.0,95,0.00,,,0.11,,2013-03-13 09:42:00,
2013-03-12 23:52:00,68.0,67.0,30.08,West,274,1.0,3.0,95,0.00,,,0.11,,2013-03-13 09:52:00,